Hourly Data Report for March 24, 2021

KUGAARUK CLIMATE
NUNAVUT
Current Station Operator: ECCC - MSC

68°32'15.060" N
89°47'47.020" W
15.80 m
2303094
71407
NBB

Download Data

Hourly Data (March 2021)
Hourly Data Report for March 24, 2021
TIME
LST
Temp Definition
°C
Dew Point Definition
°C
Rel Hum Definition
%
Precip. Amount Definition
mm

Wind Dir Definition
10's deg

Wind Spd Definition
km/h
Visibility Definition
km
Stn Press Definition
kPa
Hmdx Definition


Wind Chill Definition


Weather Definition


00:00 -30.3 -33.6 73 0.0 23 21   102.04   -44 LegendNANA
01:00 -31.4 -34.7 73 0.0 19 19   102.03   -45 LegendNANA
02:00 -30.1 -33.5 73 0.0 24 27   102.03   -45 LegendNANA
03:00 -31.1 -34.5 72 0.0 24 24   102.06   -46 LegendNANA
04:00 -31.3 -34.6 73 0.0 25 31   102.04   -48 LegendNANA
05:00 -31.1 -34.4 73 0.0 25 30   102.07   -47 LegendNANA
06:00 -30.8 -34.2 72 0.0 27 29   102.05   -46 LegendNANA
07:00 -31.0 -34.6 71 0.0 25 28   102.07   -46 LegendNANA
08:00 -30.3 -33.9 70 0.0 25 23   102.07   -44 LegendNANA
09:00 -29.6 -33.5 69 0.0 26 25   102.07   -44 LegendNANA
10:00 -29.4 -33.4 69 0.0 23 25   102.11   -44 LegendNANA
11:00 -28.7 -32.7 68 0.0 24 24   102.20   -43 LegendNANA
12:00 -28.4 -32.5 68 0.0 27 22   102.24   -42 LegendNANA
13:00 -28.3 -32.1 70 0.0 27 24   102.27   -42 LegendNANA
14:00 -28.0 -31.8 70 0.0 27 20   102.31   -41 LegendNANA
15:00 -28.0 -31.8 70 0.0 25 16   102.32   -39 LegendNANA
16:00 -28.1 -31.8 71 0.0 26 19   102.34   -40 LegendNANA
17:00 -28.3 -31.6 73 0.0 20 23   102.40   -42 LegendNANA
18:00 -29.1 -32.3 73 0.0 22 30   102.40   -44 LegendNANA
19:00 -28.4 -31.7 74 0.0 26 26   102.44   -43 LegendNANA
20:00 -28.4 -31.6 74 0.0 26 34   102.43   -44 LegendNANA
21:00 -29.6 -32.9 73 0.0 24 28   102.52   -45 LegendNANA
22:00 -29.8 -33.1 73 0.0 22 31   102.55   -46 LegendNANA
23:00 -29.9 -33.2 73 0.0 22 30   102.59   -45 LegendNANA

Notes on Data Quality.

Legend

  • E = Estimated
  • M = Missing
  • NA = Not Available*
  • [empty] = Indicates an unobserved value
Date modified: